• In Uzbekistan
  • List of Countries
  • For 7 days
  • Water Temperature
  • Satellite Maps
  • Weather Map
  • Weather Widgets
  • user-avatar
    Login

    Hourly Weather Gagra

    Today, 22 September, Friday

    Time Temperature Precipitation Wind Pressure Humidity
    00:00 +25°C° 0 mm 3 mps 729 mmHg 35%
    01:00 +24°C° 0 mm 3 mps 729 mmHg 33%
    02:00 +24°C° 0 mm 3 mps 729 mmHg 31%
    03:00 +24°C° 0 mm 3 mps 729 mmHg 27%
    04:00 +24°C° 0.1 mm 3 mps 729 mmHg 30%
    05:00 +24°C° 0.1 mm 3 mps 729 mmHg 33%
    06:00 +24°C° 0.1 mm 3 mps 729 mmHg 35%
    07:00 +27°C° 0.1 mm 3 mps 729 mmHg 35%
    08:00 +29°C° 0.1 mm 2 mps 729 mmHg 36%
    09:00 +32°C° 0 mm 2 mps 729 mmHg 37%
    10:00 +34°C° 0 mm 2 mps 730 mmHg 36%
    11:00 +34°C° 0 mm 2 mps 730 mmHg 35%
    12:00 +35°C° 0 mm 3 mps 730 mmHg 34%
    13:00 +34°C° 0 mm 3 mps 731 mmHg 36%
    14:00 +34°C° 0 mm 3 mps 731 mmHg 39%
    15:00 +33°C° 0 mm 3 mps 731 mmHg 42%
    16:00 +30°C° 0 mm 3 mps 732 mmHg 53%
    17:00 +28°C° 0 mm 3 mps 732 mmHg 63%
    18:00 +25°C° 0 mm 3 mps 732 mmHg 74%
    19:00 +25°C° 0 mm 2 mps 732 mmHg 73%
    20:00 +24°C° 0 mm 2 mps 733 mmHg 73%
    21:00 +23°C° 0 mm 2 mps 733 mmHg 72%
    22:00 +23°C° 0 mm 2 mps 733 mmHg 72%
    23:00 +21°C° 0 mm 2 mps 734 mmHg 73%

    Tomorrow, 23 September, Saturday

    Time Temperature Precipitation Wind Pressure Humidity
    00:00 +21°C° 0 mm 2 mps 734 mmHg 73%
    01:00 +21°C° 0 mm 2 mps 734 mmHg 73%
    02:00 +21°C° 0 mm 2 mps 734 mmHg 73%
    03:00 +20°C° 0 mm 2 mps 734 mmHg 73%
    04:00 +20°C° 0.1 mm 2 mps 734 mmHg 72%
    05:00 +20°C° 0.1 mm 2 mps 734 mmHg 71%
    06:00 +20°C° 0.1 mm 2 mps 734 mmHg 70%
    07:00 +23°C° 0.4 mm 2 mps 734 mmHg 67%
    08:00 +25°C° 0.4 mm 3 mps 734 mmHg 65%
    09:00 +27°C° 0.4 mm 3 mps 734 mmHg 63%
    10:00 +28°C° 0.8 mm 3 mps 734 mmHg 62%
    11:00 +29°C° 0.8 mm 3 mps 734 mmHg 61%
    12:00 +29°C° 0.8 mm 3 mps 734 mmHg 61%
    13:00 +29°C° 1.2 mm 3 mps 734 mmHg 65%
    14:00 +28°C° 1.2 mm 3 mps 734 mmHg 70%
    15:00 +27°C° 1.2 mm 3 mps 735 mmHg 74%
    16:00 +26°C° 0.5 mm 3 mps 735 mmHg 79%
    17:00 +24°C° 0.5 mm 2 mps 735 mmHg 84%
    18:00 +23°C° 0.5 mm 2 mps 735 mmHg 89%
    19:00 +21°C° 0.2 mm 2 mps 736 mmHg 88%
    20:00 +21°C° 0.2 mm 2 mps 736 mmHg 88%
    21:00 +20°C° 0.2 mm 3 mps 736 mmHg 88%
    22:00 +20°C° 0.4 mm 3 mps 736 mmHg 87%
    23:00 +19°C° 0.4 mm 3 mps 737 mmHg 86%

    Day after tomorrow, 24 September, Sunday

    Time Temperature Precipitation Wind Pressure Humidity
    00:00 +19°C° 0.4 mm 3 mps 737 mmHg 85%
    01:00 +19°C° 0.2 mm 3 mps 737 mmHg 85%
    02:00 +19°C° 0.2 mm 3 mps 737 mmHg 85%
    03:00 +19°C° 0.2 mm 3 mps 737 mmHg 85%
    04:00 +19°C° 0.1 mm 3 mps 737 mmHg 85%
    05:00 +18°C° 0.1 mm 2 mps 737 mmHg 85%
    06:00 +18°C° 0.1 mm 2 mps 737 mmHg 84%
    07:00 +20°C° 0 mm 2 mps 738 mmHg 79%
    08:00 +24°C° 0 mm 2 mps 738 mmHg 73%
    09:00 +26°C° 0 mm 1 mps 738 mmHg 67%
    10:00 +26°C° 0.2 mm 2 mps 738 mmHg 66%
    11:00 +27°C° 0.2 mm 2 mps 738 mmHg 65%
    12:00 +27°C° 0.2 mm 2 mps 738 mmHg 64%
    13:00 +27°C° 0.4 mm 2 mps 738 mmHg 67%
    14:00 +27°C° 0.4 mm 2 mps 738 mmHg 70%
    15:00 +26°C° 0.4 mm 2 mps 738 mmHg 73%
    16:00 +25°C° 0.3 mm 2 mps 738 mmHg 78%
    17:00 +24°C° 0.3 mm 2 mps 738 mmHg 83%
    18:00 +23°C° 0.3 mm 2 mps 738 mmHg 87%
    19:00 +21°C° 0 mm 2 mps 738 mmHg 87%
    20:00 +20°C° 0 mm 2 mps 738 mmHg 88%
    21:00 +21°C° 0 mm 1 mps 738 mmHg 88%
    22:00 +21°C° 0 mm 1 mps 738 mmHg 87%
    23:00 +19°C° 0 mm 2 mps 738 mmHg 87%

    25 September, Monday

    Time Temperature Precipitation Wind Pressure Humidity
    00:00 +19°C° 0 mm 2 mps 738 mmHg 86%
    01:00 +19°C° 0 mm 2 mps 738 mmHg 86%
    02:00 +19°C° 0 mm 2 mps 738 mmHg 86%
    03:00 +19°C° 0 mm 2 mps 738 mmHg 86%
    04:00 +18°C° 0 mm 2 mps 738 mmHg 85%
    05:00 +18°C° 0 mm 2 mps 738 mmHg 85%
    06:00 +18°C° 0 mm 2 mps 738 mmHg 84%
    07:00 +20°C° 0 mm 2 mps 738 mmHg 79%
    08:00 +23°C° 0 mm 2 mps 738 mmHg 73%
    09:00 +26°C° 0 mm 1 mps 738 mmHg 67%
    10:00 +27°C° 0 mm 1 mps 738 mmHg 63%
    11:00 +28°C° 0 mm 1 mps 738 mmHg 59%
    12:00 +29°C° 0 mm 2 mps 737 mmHg 54%
    13:00 +28°C° 0 mm 2 mps 737 mmHg 58%
    14:00 +28°C° 0 mm 2 mps 737 mmHg 62%
    15:00 +27°C° 0 mm 2 mps 737 mmHg 66%
    16:00 +26°C° 0 mm 2 mps 737 mmHg 73%
    17:00 +24°C° 0 mm 2 mps 736 mmHg 80%
    18:00 +23°C° 0 mm 2 mps 736 mmHg 86%
    19:00 +21°C° 0 mm 2 mps 736 mmHg 86%
    20:00 +20°C° 0 mm 2 mps 736 mmHg 85%
    21:00 +21°C° 0 mm 1 mps 736 mmHg 85%
    22:00 +21°C° 0 mm 1 mps 736 mmHg 84%
    23:00 +21°C° 0 mm 1 mps 736 mmHg 83%

    26 September, Tuesday

    Time Temperature Precipitation Wind Pressure Humidity
    00:00 +20°C° 0 mm 1 mps 736 mmHg 82%
    01:00 +20°C° 0 mm 1 mps 736 mmHg 80%
    02:00 +20°C° 0 mm 1 mps 735 mmHg 79%
    03:00 +19°C° 0 mm 2 mps 735 mmHg 77%
    04:00 +19°C° 0 mm 2 mps 735 mmHg 73%
    05:00 +19°C° 0 mm 2 mps 735 mmHg 69%
    06:00 +19°C° 0 mm 2 mps 735 mmHg 65%
    07:00 +22°C° 0 mm 1 mps 735 mmHg 57%
    08:00 +25°C° 0 mm 1 mps 735 mmHg 49%
    09:00 +27°C° 0 mm 1 mps 735 mmHg 41%
    10:00 +28°C° 0 mm 1 mps 735 mmHg 39%
    11:00 +29°C° 0 mm 1 mps 735 mmHg 37%
    12:00 +30°C° 0 mm 1 mps 735 mmHg 34%
    13:00 +30°C° 0 mm 1 mps 735 mmHg 37%
    14:00 +30°C° 0 mm 2 mps 734 mmHg 39%
    15:00 +29°C° 0 mm 2 mps 734 mmHg 41%
    16:00 +27°C° 0 mm 2 mps 734 mmHg 51%
    17:00 +25°C° 0 mm 2 mps 734 mmHg 60%
    18:00 +23°C° 0 mm 2 mps 734 mmHg 69%
    19:00 +21°C° 0 mm 2 mps 734 mmHg 69%
    20:00 +21°C° 0 mm 2 mps 734 mmHg 69%
    21:00 +20°C° 0 mm 2 mps 734 mmHg 68%
    22:00 +20°C° 0 mm 2 mps 734 mmHg 63%
    23:00 +20°C° 0 mm 2 mps 734 mmHg 57%

    27 September, Wednesday

    Time Temperature Precipitation Wind Pressure Humidity
    00:00 +21°C° 0 mm 2 mps 734 mmHg 51%
    01:00 +21°C° 0 mm 2 mps 733 mmHg 46%
    02:00 +21°C° 0 mm 2 mps 733 mmHg 41%
    03:00 +21°C° 0 mm 2 mps 733 mmHg 36%
    04:00 +21°C° 0 mm 2 mps 733 mmHg 37%
    05:00 +21°C° 0 mm 2 mps 733 mmHg 38%
    06:00 +20°C° 0 mm 2 mps 733 mmHg 39%
    07:00 +21°C° 0.2 mm 2 mps 734 mmHg 45%
    08:00 +23°C° 0.2 mm 2 mps 734 mmHg 50%
    09:00 +24°C° 0.2 mm 2 mps 734 mmHg 56%
    10:00 +25°C° 0.2 mm 2 mps 734 mmHg 57%
    11:00 +25°C° 0.2 mm 1 mps 734 mmHg 57%
    12:00 +26°C° 0.2 mm 1 mps 735 mmHg 58%
    13:00 +26°C° 0 mm 2 mps 735 mmHg 55%
    14:00 +27°C° 0 mm 2 mps 735 mmHg 52%
    15:00 +27°C° 0 mm 3 mps 735 mmHg 49%
    16:00 +25°C° 0.1 mm 3 mps 735 mmHg 58%
    17:00 +22°C° 0.1 mm 3 mps 735 mmHg 68%
    18:00 +20°C° 0.1 mm 3 mps 735 mmHg 77%
    19:00 +20°C° 0.2 mm 2 mps 735 mmHg 78%
    20:00 +19°C° 0.2 mm 2 mps 735 mmHg 78%
    21:00 +19°C° 0.2 mm 2 mps 735 mmHg 78%
    22:00 +18°C° 0 mm 2 mps 735 mmHg 77%
    23:00 +18°C° 0 mm 2 mps 735 mmHg 76%
    Show more